User: anonymous   Login
Location: El Carrer d�Abaix
(41.5797°N, 2.1791°E)
Time: 02:32:50
(UTC+00:00)
Language:

Cosmos 2082 Rocket - Orbit

View from above orbital plane
View from above orbital plane
View from above satellite
View from above satellite

Ground track
Ground track

The orbit data is extracted from the following two-line orbital elements,

1 20625U 90046B   21127.49577903 -.00000277  00000-0 -11917-3 0  9991
2 20625  71.0014  48.0389 0011961 113.5001 246.7380 14.14669031598446
Epoch (UTC): 07 May 2021 11:53:55
Eccentricity: 0.0011961
inclination: 71.0014°
perigee height: 835 km
apogee height: 852 km
right ascension of ascending node: 48.0389°
argument of perigee: 113.5001°
revolutions per day: 14.14669031
mean anomaly at epoch: 246.7380°
orbit number at epoch: 59844

The dashed part of the orbit path shows where the satellite is in the earth's shadow,  

DLR